Flight Track Log - Related Links

Times and Time Zones

All times are in EST time to prevent confusion due to time zone crossing. See the FIN666 flight status page for this flight to view local times or setup timezone preferences in your user account.

Time Position Orientation Groundspeed Altitude Reporting Facility
EST Latitude Longitude Course Direction KTS MPH feet Rate Location/Type
Sun 07:25:00 AM 55.8486 13.1329 49° Northeast  Level Estimated
Sun 07:26:00 AM 55.9251 13.2931 50° Northeast  Level Estimated
Sun 07:27:00 AM 56.0014 13.4539 50° Northeast  Level Estimated
Sun 07:28:00 AM 56.0797 13.6203 50° Northeast  Level Estimated
Sun 07:29:00 AM 56.1579 13.7874 50° Northeast  Level Estimated
Sun 07:30:00 AM 56.2358 13.9551 50° Northeast  Level Estimated
Sun 07:31:00 AM 56.3135 14.1236 50° Northeast  Level Estimated
Sun 07:32:00 AM 56.3909 14.2927 50° Northeast  Level Estimated
Sun 07:33:00 AM 56.4682 14.4625 50° Northeast  Level Estimated
Sun 07:34:00 AM 56.5452 14.6330 51° Northeast  Level Estimated
Sun 07:35:00 AM 56.6219 14.8042 51° Northeast  Level Estimated
Sun 07:36:00 AM 56.6984 14.9761 51° Northeast  Level Estimated
Sun 07:37:00 AM 56.7747 15.1487 51° Northeast  Level Estimated
Sun 07:38:00 AM 56.8508 15.3220 51° Northeast  Level Estimated
Sun 07:39:00 AM 56.9266 15.4959 51° Northeast  Level Estimated
Sun 07:40:00 AM 57.0022 15.6706 51° Northeast  Level Estimated
Sun 07:41:00 AM 57.0775 15.8461 52° Northeast  Level Estimated
Sun 07:42:00 AM 57.1525 16.0222 52° Northeast  Level Estimated
Sun 07:43:00 AM 57.2274 16.1990 52° Northeast  Level Estimated
Sun 07:44:00 AM 57.3020 16.3766 52° Northeast  Level Estimated
Sun 07:45:00 AM 57.3763 16.5549 52° Northeast  Level Estimated
Sun 07:46:00 AM 57.4504 16.7339 52° Northeast  Level Estimated
Sun 07:47:00 AM 57.5242 16.9136 53° Northeast  Level Estimated
Sun 07:48:00 AM 57.5977 17.0940 53° Northeast  Level Estimated
Sun 07:49:00 AM 57.6710 17.2752 53° Northeast  Level Estimated
Sun 07:50:00 AM 57.7441 17.4571 53° Northeast  Level Estimated
Sun 07:51:00 AM 57.8169 17.6398 53° Northeast  Level Estimated
Sun 07:52:00 AM 57.8894 17.8232 53° Northeast  Level Estimated
Sun 07:53:00 AM 57.9616 18.0073 53° Northeast  Level Estimated
Sun 07:54:00 AM 58.0336 18.1922 54° Northeast  Level Estimated
Sun 07:55:00 AM 58.1053 18.3778 54° Northeast  Level Estimated
Sun 07:56:00 AM 58.1768 18.5642 54° Northeast  Level Estimated
Sun 07:57:00 AM 58.2480 18.7513 54° Northeast  Level Estimated
Sun 07:58:00 AM 58.3189 18.9391 54° Northeast  Level Estimated
Sun 07:59:00 AM 58.3895 19.1278 54° Northeast  Level Estimated
Sun 08:00:00 AM 58.4598 19.3171 55° Northeast  Level Estimated
Sun 08:01:00 AM 58.5299 19.5072 55° Northeast  Level Estimated
Sun 08:02:00 AM 58.5997 19.6981 55° Northeast  Level Estimated
Sun 08:03:00 AM 58.6692 19.8898 55° Northeast  Level Estimated
Sun 08:04:00 AM 58.7384 20.0822 55° Northeast  Level Estimated
Sun 08:05:00 AM 58.8073 20.2754 55° Northeast  Level Estimated
Sun 08:06:00 AM 58.8759 20.4693 56° Northeast  Level Estimated
Sun 08:07:00 AM 58.9443 20.6640 56° Northeast  Level Estimated
Sun 08:08:00 AM 59.0123 20.8595 56° Northeast  Level Estimated
Sun 08:09:00 AM 59.0801 21.0558 56° Northeast  Level Estimated
Sun 08:10:00 AM 59.1465 21.2499 56° Northeast  Level Estimated
Sun 08:11:00 AM 59.2127 21.4447 56° Northeast  Level Estimated
Sun 08:12:00 AM 59.2785 21.6403 57° Northeast  Level Estimated
Sun 08:13:00 AM 59.3441 21.8367 57° Northeast  Level Estimated
Sun 08:14:00 AM 59.4094 22.0338 57° Northeast  Level Estimated
Sun 08:15:00 AM 59.4744 22.2317 57° Northeast  Level Estimated
Sun 08:16:00 AM 59.5391 22.4303 57° Northeast  Level Estimated
Sun 08:17:00 AM 59.6034 22.6297 57° Northeast  Level Estimated
Sun 08:18:00 AM 59.6675 22.8298 58° Northeast  Level Estimated
Sun 08:19:00 AM 59.7313 23.0308 58° Northeast  Level Estimated
Sun 08:20:00 AM 59.7947 23.2325 58° Northeast  Level Estimated
Sun 08:21:00 AM 59.8579 23.4349 58° Northeast  Level Estimated
Sun 08:22:00 AM 59.9207 23.6381 58° Northeast  Level Estimated
Sun 08:23:00 AM 59.9832 23.8421 58° Northeast  Level Estimated
Sun 08:24:00 AM 60.0455 24.0469 59° Northeast  Level Estimated
Sun 08:25:00 AM 60.1073 24.2524 59° Northeast  Level Estimated
Sun 08:26:00 AM 60.1689 24.4587 59° Northeast  Level Estimated
Sun 08:27:00 AM 60.2302 24.6658 59° Northeast  Level Estimated
Sun 08:28:00 AM 60.2930 24.8800 59° Northeast  Level Estimated
Sun 08:29:00 AM 60.3172 24.9633 60° Northeast  Level Estimated
Sun 08:30:00 AM 60.3172 24.9633 37° Northeast  Level Estimated
Sun 08:31:00 AM 60.3172 24.9633 37° Northeast  Level Estimated
Sun 08:32:00 AM 60.3172 24.9633 37° Northeast  Level Estimated
Sun 08:33:00 AM 60.3172 24.9633 37° Northeast  Level Estimated
Sun 08:34:00 AM 60.3172 24.9633 37° Northeast  Level Estimated
Sun 08:35:00 AM 60.3172 24.9633 37° Northeast  Level Estimated
Sun 08:36:00 AM 60.3172 24.9633 37° Northeast  Level Estimated
Sun 08:37:00 AM 60.3172 24.9633 37° Northeast  Level Estimated
Sun 08:38:00 AM 60.3172 24.9633 37° Northeast  Level Estimated
Sun 08:39:00 AM 60.3172 24.9633 37° Northeast  Level Estimated
Sun 08:40:00 AM 60.3172 24.9633 37° Northeast  Level Estimated
Sun 08:41:00 AM 60.3172 24.9633 37° Northeast  Level Estimated
Sun 08:42:00 AM 60.3172 24.9633 37° Northeast  Level Estimated
Sun 08:43:00 AM 60.3172 24.9633 37° Northeast  Level Estimated

Login

Don't have an account? Register now (free) for customized features, flight alerts, and more!